CFG4265 EDDF-LFPG

Flight info

Callsign CFG4265
Flight time 0h 49m
Altitude 32000
Route SOBRA2L/18 SOBRA Y180 DIK UN857 TOLVU DCT RAPOR DCT VEDUS
Aircraft A20N/M-SDE2E3FGHIRWXY/LB1

Departure

Time 2026-05-04 20:34
Airport Frankfurt Main Airport (EDDF)

Arrival

Time 2026-05-04 21:23
Airport Charles de Gaulle International Airport (LFPG)
Time Latitude Longitude Altitude Speed Heading
2026-05-04 19:59 50.04883 8.57441 358 ft 0 kts 217°
2026-05-04 20:18 50.04885 8.57444 365 ft 1 kts 217°
2026-05-04 20:18 50.04895 8.57455 367 ft 2 kts 217°
2026-05-04 20:18 50.04908 8.57471 366 ft 2 kts 217°
2026-05-04 20:19 50.04922 8.57488 367 ft 3 kts 214°
2026-05-04 20:19 50.04939 8.57498 365 ft 2 kts 151°
2026-05-04 20:19 50.04945 8.57493 365 ft 0 kts 120°
2026-05-04 20:19 50.04937 8.57521 367 ft 5 kts 114°
2026-05-04 20:20 50.04926 8.57563 367 ft 4 kts 113°
2026-05-04 20:20 50.04915 8.57599 368 ft 4 kts 114°
2026-05-04 20:20 50.04906 8.57630 367 ft 0 kts 114°
2026-05-04 20:23 50.04906 8.57631 365 ft 1 kts 114°
2026-05-04 20:23 50.04897 8.57662 368 ft 5 kts 114°
2026-05-04 20:24 50.04875 8.57736 366 ft 10 kts 114°
2026-05-04 20:24 50.04848 8.57833 367 ft 10 kts 114°
2026-05-04 20:24 50.04789 8.57913 366 ft 12 kts 156°
2026-05-04 20:24 50.04707 8.57880 366 ft 14 kts 237°
2026-05-04 20:25 50.04667 8.57725 367 ft 13 kts 249°
2026-05-04 20:25 50.04630 8.57575 366 ft 16 kts 249°
2026-05-04 20:25 50.04595 8.57428 368 ft 16 kts 250°
2026-05-04 20:25 50.04554 8.57258 373 ft 18 kts 249°
2026-05-04 20:26 50.04506 8.57061 368 ft 21 kts 249°
2026-05-04 20:26 50.04462 8.56876 368 ft 19 kts 250°
2026-05-04 20:26 50.04422 8.56704 368 ft 16 kts 250°
2026-05-04 20:26 50.04381 8.56532 367 ft 16 kts 250°
2026-05-04 20:27 50.04339 8.56359 369 ft 18 kts 249°
2026-05-04 20:27 50.04293 8.56163 368 ft 20 kts 249°
2026-05-04 20:27 50.04246 8.55966 368 ft 18 kts 251°
2026-05-04 20:27 50.04198 8.55769 365 ft 21 kts 249°
2026-05-04 20:28 50.04146 8.55550 367 ft 22 kts 249°
2026-05-04 20:28 50.04095 8.55338 372 ft 20 kts 250°
2026-05-04 20:28 50.04083 8.55285 368 ft 3 kts 250°
2026-05-04 20:28 50.04067 8.55217 371 ft 9 kts 250°
2026-05-04 20:29 50.04039 8.55101 366 ft 13 kts 249°
2026-05-04 20:29 50.04002 8.54952 368 ft 16 kts 250°
2026-05-04 20:29 50.03962 8.54777 367 ft 18 kts 250°
2026-05-04 20:29 50.03920 8.54600 368 ft 17 kts 249°
2026-05-04 20:30 50.03880 8.54437 369 ft 13 kts 249°
2026-05-04 20:30 50.03842 8.54327 368 ft 13 kts 232°
2026-05-04 20:30 50.03793 8.54192 369 ft 16 kts 248°
2026-05-04 20:30 50.03752 8.54019 365 ft 18 kts 250°
2026-05-04 20:31 50.03711 8.53849 367 ft 17 kts 249°
2026-05-04 20:31 50.03667 8.53664 366 ft 19 kts 250°
2026-05-04 20:31 50.03618 8.53476 369 ft 19 kts 249°
2026-05-04 20:31 50.03570 8.53276 367 ft 21 kts 249°
2026-05-04 20:32 50.03525 8.53086 369 ft 19 kts 250°
2026-05-04 20:32 50.03477 8.52884 369 ft 18 kts 248°
2026-05-04 20:32 50.03429 8.52707 371 ft 18 kts 249°
2026-05-04 20:32 50.03395 8.52597 370 ft 8 kts 205°
2026-05-04 20:33 50.03378 8.52594 368 ft 0 kts 181°
2026-05-04 20:33 50.03168 8.52595 365 ft 67 kts 180°
2026-05-04 20:33 50.02490 8.52600 369 ft 125 kts 180°
2026-05-04 20:33 50.01472 8.52604 480 ft 158 kts 180°
2026-05-04 20:34 50.00392 8.52633 1057 ft 156 kts 180°
2026-05-04 20:34 49.99296 8.52662 1618 ft 160 kts 179°
2026-05-04 20:34 49.98190 8.52678 2172 ft 164 kts 180°
2026-05-04 20:34 49.97000 8.52682 2564 ft 180 kts 180°
2026-05-04 20:35 49.95683 8.52689 2978 ft 199 kts 180°
2026-05-04 20:35 49.94228 8.52702 3402 ft 222 kts 180°
2026-05-04 20:35 49.92640 8.52720 4021 ft 232 kts 180°
2026-05-04 20:35 49.91027 8.52741 5140 ft 228 kts 180°
2026-05-04 20:36 49.89442 8.52586 6190 ft 235 kts 196°
2026-05-04 20:36 49.87973 8.51298 6841 ft 255 kts 224°
2026-05-04 20:36 49.87061 8.48942 7719 ft 266 kts 252°
2026-05-04 20:36 49.86953 8.46047 8731 ft 277 kts 276°
2026-05-04 20:37 49.87407 8.43111 9764 ft 283 kts 282°
2026-05-04 20:37 49.87938 8.40130 10555 ft 295 kts 281°
2026-05-04 20:37 49.88401 8.36904 10965 ft 318 kts 278°
2026-05-04 20:37 49.88779 8.33412 11464 ft 335 kts 276°
2026-05-04 20:38 49.89097 8.29813 12338 ft 339 kts 275°
2026-05-04 20:38 49.89392 8.26156 13254 ft 344 kts 274°
2026-05-04 20:38 49.89680 8.22459 14105 ft 348 kts 274°
2026-05-04 20:38 49.89966 8.18762 14910 ft 352 kts 274°
2026-05-04 20:39 49.90262 8.14959 15661 ft 357 kts 274°
2026-05-04 20:39 49.90560 8.11119 16500 ft 360 kts 274°
2026-05-04 20:39 49.90860 8.07253 17309 ft 363 kts 274°
2026-05-04 20:39 49.91163 8.03344 18113 ft 366 kts 274°
2026-05-04 20:40 49.91467 7.99406 18813 ft 370 kts 274°
2026-05-04 20:40 49.91773 7.95419 19476 ft 374 kts 274°
2026-05-04 20:40 49.92081 7.91390 20146 ft 378 kts 274°
2026-05-04 20:40 49.92390 7.87330 20800 ft 382 kts 274°
2026-05-04 20:41 49.92701 7.83222 21460 ft 385 kts 273°
2026-05-04 20:41 49.93011 7.79121 22111 ft 389 kts 273°
2026-05-04 20:41 49.93326 7.74926 22731 ft 393 kts 273°
2026-05-04 20:41 49.93641 7.70693 23404 ft 396 kts 273°
2026-05-04 20:42 49.93958 7.66426 23947 ft 400 kts 273°
2026-05-04 20:42 49.94277 7.62116 24506 ft 403 kts 273°
2026-05-04 20:42 49.94595 7.57789 25056 ft 405 kts 273°
2026-05-04 20:42 49.94914 7.53431 25586 ft 408 kts 272°
2026-05-04 20:43 49.95234 7.49035 26116 ft 410 kts 272°
2026-05-04 20:43 49.95553 7.44623 26631 ft 413 kts 272°
2026-05-04 20:43 49.95873 7.40173 27145 ft 415 kts 272°
2026-05-04 20:43 49.96193 7.35705 27622 ft 418 kts 272°
2026-05-04 20:44 49.96510 7.31261 28087 ft 421 kts 272°
2026-05-04 20:44 49.96832 7.26734 28571 ft 423 kts 271°
2026-05-04 20:44 49.97153 7.22186 29034 ft 425 kts 271°
2026-05-04 20:44 49.97474 7.17603 29441 ft 428 kts 271°
2026-05-04 20:45 49.97793 7.12998 29868 ft 430 kts 271°
2026-05-04 20:45 49.98113 7.08364 30252 ft 432 kts 271°
2026-05-04 20:45 49.98433 7.03711 30670 ft 434 kts 271°
2026-05-04 20:45 49.98753 6.99043 31066 ft 435 kts 271°
2026-05-04 20:46 49.99068 6.94425 31495 ft 435 kts 271°
2026-05-04 20:46 49.99269 6.89768 31862 ft 429 kts 266°
2026-05-04 20:46 49.99046 6.80565 31973 ft 427 kts 262°
2026-05-04 20:47 49.98769 6.71339 31970 ft 427 kts 262°
2026-05-04 20:47 49.98467 6.62138 31969 ft 425 kts 260°
2026-05-04 20:48 49.97316 6.53214 31950 ft 419 kts 248°
2026-05-04 20:48 49.95156 6.44943 31956 ft 416 kts 243°
2026-05-04 20:49 49.92847 6.36714 31982 ft 416 kts 243°
2026-05-04 20:49 49.90530 6.28473 31957 ft 417 kts 243°
2026-05-04 20:50 49.88140 6.20262 31962 ft 418 kts 243°
2026-05-04 20:50 49.85653 6.12205 31968 ft 416 kts 237°
2026-05-04 20:51 49.82395 6.04835 31966 ft 415 kts 232°
2026-05-04 20:51 49.79046 5.97564 31962 ft 415 kts 232°
2026-05-04 20:52 49.75711 5.90263 31963 ft 416 kts 234°
2026-05-04 20:52 49.73070 5.82339 31964 ft 420 kts 246°
2026-05-04 20:53 49.71107 5.73822 31968 ft 421 kts 248°
2026-05-04 20:53 49.69135 5.65314 31965 ft 421 kts 247°
2026-05-04 20:54 49.67148 5.56814 31964 ft 421 kts 247°
2026-05-04 20:54 49.65156 5.48324 31964 ft 421 kts 247°
2026-05-04 20:55 49.63169 5.39894 31982 ft 421 kts 247°
2026-05-04 20:55 49.61242 5.31425 31957 ft 420 kts 249°
2026-05-04 20:56 49.59671 5.22734 31957 ft 423 kts 257°
2026-05-04 20:56 49.59179 5.13693 31801 ft 424 kts 267°
2026-05-04 20:57 49.59233 5.09150 31241 ft 424 kts 267°
2026-05-04 20:57 49.59281 5.04698 30476 ft 425 kts 267°
2026-05-04 20:57 49.59322 5.00153 29715 ft 424 kts 267°
2026-05-04 20:57 49.59359 4.95629 29006 ft 420 kts 267°
2026-05-04 20:58 49.59392 4.91155 28362 ft 415 kts 267°
2026-05-04 20:58 49.59421 4.86724 27665 ft 412 kts 268°
2026-05-04 20:58 49.59448 4.82325 26973 ft 409 kts 268°
2026-05-04 20:58 49.59473 4.77956 26301 ft 406 kts 268°
2026-05-04 20:59 49.59496 4.73626 25647 ft 403 kts 268°
2026-05-04 20:59 49.59517 4.69317 25013 ft 401 kts 268°
2026-05-04 20:59 49.59537 4.65095 24396 ft 398 kts 268°
2026-05-04 20:59 49.59555 4.60839 23783 ft 396 kts 268°
2026-05-04 21:00 49.59572 4.56613 23129 ft 393 kts 268°
2026-05-04 21:00 49.59520 4.52427 22474 ft 388 kts 262°
2026-05-04 21:00 49.58898 4.48420 21827 ft 383 kts 251°
2026-05-04 21:00 49.58091 4.44497 21042 ft 384 kts 251°
2026-05-04 21:01 49.57286 4.40587 20348 ft 383 kts 251°
2026-05-04 21:01 49.56475 4.36641 19243 ft 392 kts 251°
2026-05-04 21:01 49.55640 4.32576 18061 ft 403 kts 251°
2026-05-04 21:01 49.54799 4.28484 17007 ft 407 kts 252°
2026-05-04 21:02 49.53946 4.24337 16228 ft 404 kts 252°
2026-05-04 21:02 49.53104 4.20253 15566 ft 397 kts 252°
2026-05-04 21:02 49.52272 4.16225 14929 ft 395 kts 252°
2026-05-04 21:02 49.51439 4.12197 14297 ft 394 kts 252°
2026-05-04 21:03 49.50609 4.08195 13673 ft 391 kts 252°
2026-05-04 21:03 49.49785 4.04231 12984 ft 388 kts 252°
2026-05-04 21:03 49.48970 4.00310 12310 ft 383 kts 252°
2026-05-04 21:03 49.48162 3.96433 11651 ft 379 kts 252°
2026-05-04 21:04 49.47357 3.92580 11159 ft 376 kts 252°
2026-05-04 21:04 49.46559 3.88762 10995 ft 375 kts 252°
2026-05-04 21:04 49.45770 3.84985 10964 ft 377 kts 252°
2026-05-04 21:04 49.44967 3.81157 10959 ft 376 kts 252°
2026-05-04 21:05 49.44164 3.77335 10953 ft 376 kts 252°
2026-05-04 21:05 49.43358 3.73514 10953 ft 376 kts 252°
2026-05-04 21:05 49.42549 3.69690 10956 ft 376 kts 252°
2026-05-04 21:05 49.41740 3.65873 10958 ft 376 kts 252°
2026-05-04 21:06 49.40930 3.62058 10958 ft 376 kts 252°
2026-05-04 21:06 49.40119 3.58247 10956 ft 376 kts 252°
2026-05-04 21:06 49.39305 3.54425 10955 ft 379 kts 251°
2026-05-04 21:06 49.38494 3.50623 10959 ft 379 kts 251°
2026-05-04 21:07 49.37670 3.46782 10952 ft 379 kts 251°
2026-05-04 21:07 49.36829 3.42952 10951 ft 379 kts 251°
2026-05-04 21:07 49.35987 3.39128 10953 ft 379 kts 251°
2026-05-04 21:07 49.35147 3.35295 10948 ft 379 kts 251°
2026-05-04 21:08 49.34334 3.31454 10953 ft 379 kts 252°
2026-05-04 21:08 49.33524 3.27612 10950 ft 379 kts 252°
2026-05-04 21:08 49.32707 3.23770 10955 ft 379 kts 251°
2026-05-04 21:08 49.31879 3.19938 10946 ft 379 kts 251°
2026-05-04 21:09 49.31046 3.16109 10951 ft 379 kts 251°
2026-05-04 21:09 49.30211 3.12280 10947 ft 379 kts 251°
2026-05-04 21:09 49.29376 3.08448 10950 ft 381 kts 251°
2026-05-04 21:09 49.28535 3.04594 10953 ft 381 kts 251°
2026-05-04 21:10 49.27705 3.00795 10939 ft 381 kts 251°
2026-05-04 21:10 49.26864 2.96955 10941 ft 381 kts 251°
2026-05-04 21:10 49.26023 2.93119 10937 ft 378 kts 251°
2026-05-04 21:10 49.25186 2.89306 10939 ft 378 kts 251°
2026-05-04 21:11 49.24346 2.85493 10947 ft 378 kts 251°
2026-05-04 21:11 49.23505 2.81681 10939 ft 378 kts 251°
2026-05-04 21:11 49.22662 2.77863 10943 ft 378 kts 251°
2026-05-04 21:11 49.21817 2.74047 10949 ft 378 kts 251°
2026-05-04 21:12 49.20973 2.70237 10953 ft 378 kts 250°
2026-05-04 21:12 49.20127 2.66436 10908 ft 377 kts 250°
2026-05-04 21:12 49.19284 2.62654 10501 ft 376 kts 251°
2026-05-04 21:12 49.18503 2.58852 9945 ft 373 kts 256°
2026-05-04 21:13 49.18083 2.55037 9561 ft 362 kts 265°
2026-05-04 21:13 49.17966 2.51251 8968 ft 346 kts 268°
2026-05-04 21:13 49.17896 2.47648 8122 ft 342 kts 268°
2026-05-04 21:13 49.17820 2.44037 7283 ft 338 kts 268°
2026-05-04 21:14 49.17741 2.40466 6452 ft 334 kts 268°
2026-05-04 21:14 49.17649 2.36943 5612 ft 330 kts 268°
2026-05-04 21:14 49.17554 2.33451 4828 ft 328 kts 268°
2026-05-04 21:14 49.17455 2.29990 4306 ft 324 kts 268°
2026-05-04 21:15 49.17352 2.26573 4057 ft 323 kts 268°
2026-05-04 21:15 49.16927 2.23211 4001 ft 323 kts 248°
2026-05-04 21:15 49.15722 2.20457 3995 ft 305 kts 223°
2026-05-04 21:15 49.14041 2.18610 4001 ft 307 kts 212°
2026-05-04 21:16 49.12242 2.16854 4001 ft 306 kts 212°
2026-05-04 21:16 49.10451 2.15108 3999 ft 305 kts 212°
2026-05-04 21:16 49.08651 2.13385 3997 ft 305 kts 207°
2026-05-04 21:16 49.06643 2.12477 4003 ft 303 kts 182°
2026-05-04 21:17 49.04597 2.12924 4001 ft 293 kts 157°
2026-05-04 21:17 49.02978 2.14569 3998 ft 271 kts 130°
2026-05-04 21:17 49.01924 2.16821 3996 ft 252 kts 121°
2026-05-04 21:17 49.01194 2.19091 3992 ft 223 kts 104°
2026-05-04 21:18 49.00943 2.21439 3999 ft 231 kts 92°
2026-05-04 21:18 49.00965 2.23861 3996 ft 228 kts 86°
2026-05-04 21:18 49.01087 2.26205 3812 ft 214 kts 84°
2026-05-04 21:18 49.01199 2.28345 3531 ft 198 kts 85°
2026-05-04 21:19 49.01305 2.30364 3270 ft 185 kts 84°
2026-05-04 21:19 49.01407 2.32290 3070 ft 182 kts 84°
2026-05-04 21:19 49.01508 2.34210 2813 ft 182 kts 84°
2026-05-04 21:19 49.01610 2.36123 2557 ft 181 kts 84°
2026-05-04 21:20 49.01711 2.38035 2315 ft 181 kts 84°
2026-05-04 21:20 49.01812 2.39948 2061 ft 181 kts 84°
2026-05-04 21:20 49.01912 2.41852 1819 ft 179 kts 84°
2026-05-04 21:20 49.02007 2.43659 1574 ft 164 kts 84°
2026-05-04 21:21 49.02096 2.45322 1360 ft 151 kts 84°
2026-05-04 21:21 49.02177 2.46856 1168 ft 138 kts 84°
2026-05-04 21:21 49.02251 2.48257 971 ft 128 kts 84°
2026-05-04 21:21 49.02322 2.49612 805 ft 131 kts 84°
2026-05-04 21:22 49.02383 2.50988 582 ft 129 kts 85°
2026-05-04 21:22 49.02448 2.52351 420 ft 128 kts 82°
2026-05-04 21:22 49.02542 2.53588 361 ft 86 kts 87°
2026-05-04 21:22 49.02571 2.54319 353 ft 62 kts 85°
2026-05-04 21:23 49.02605 2.54920 359 ft 49 kts 86°
2026-05-04 21:23 49.02581 2.55241 361 ft 26 kts 109°
2026-05-04 21:23 49.02524 2.55453 356 ft 17 kts 115°
2026-05-04 21:23 49.02482 2.55572 360 ft 14 kts 129°
2026-05-04 21:24 49.02388 2.55619 356 ft 15 kts 186°
2026-05-04 21:24 49.02272 2.55628 357 ft 19 kts 176°
2026-05-04 21:24 49.02139 2.55644 356 ft 21 kts 174°
2026-05-04 21:24 49.02025 2.55661 354 ft 12 kts 175°
2026-05-04 21:25 49.01941 2.55671 362 ft 12 kts 175°
2026-05-04 21:25 49.01889 2.55597 363 ft 12 kts 261°
2026-05-04 21:25 49.01883 2.55450 356 ft 16 kts 266°
2026-05-04 21:25 49.01872 2.55294 357 ft 9 kts 265°
2026-05-04 21:26 49.01866 2.55188 359 ft 7 kts 265°
2026-05-04 21:26 49.01861 2.55092 361 ft 11 kts 267°
2026-05-04 21:26 49.01855 2.54959 354 ft 13 kts 265°
2026-05-04 21:26 49.01850 2.54877 354 ft 6 kts 265°
2026-05-04 21:27 49.01845 2.54788 361 ft 11 kts 265°
2026-05-04 21:27 49.01838 2.54656 354 ft 14 kts 265°
2026-05-04 21:27 49.01829 2.54487 360 ft 18 kts 266°
2026-05-04 21:27 49.01820 2.54302 356 ft 18 kts 266°
2026-05-04 21:28 49.01811 2.54133 358 ft 13 kts 266°
2026-05-04 21:28 49.01801 2.54006 358 ft 14 kts 258°
2026-05-04 21:28 49.01782 2.53919 359 ft 1 kts 246°
2026-05-04 21:28 49.01770 2.53886 356 ft 6 kts 238°
2026-05-04 21:29 49.01739 2.53823 357 ft 7 kts 229°
2026-05-04 21:29 49.01687 2.53818 361 ft 9 kts 173°
2026-05-04 21:29 49.01627 2.53832 354 ft 6 kts 169°
2026-05-04 21:29 49.01612 2.53836 360 ft 0 kts 169°